| time (UTC) | temp F | wind direction | speed knots | gust knots | rain 1hr in | rain 24hr in | rain mn in | humidity % | barometer mb |
| 20260506204534 | 77 | 0 | 0.9 | 7.8 | 0.00 | 0.00 | 0.00 | 71 | 1014.0 |
| 20260506204509 | 77 | 9 | 0.9 | 7.8 | 0.00 | 0.00 | 0.00 | 72 | 1013.2 |
| 20260506203034 | 77 | 9 | 0.9 | 6.1 | 0.00 | 0.00 | 0.00 | 71 | 1014.1 |
| 20260506203007 | 77 | 9 | 0.9 | 5.2 | 0.00 | 0.00 | 0.00 | 71 | 1013.2 |
| 20260506201530 | 77 | 0 | 0.9 | 10.4 | 0.00 | 0.00 | 0.00 | 70 | 1014.3 |
| 20260506201507 | 77 | 9 | 0.0 | 7.0 | 0.00 | 0.00 | 0.00 | 71 | 1013.4 |
| 20260506200044 | 77 | 9 | 1.7 | 9.6 | 0.00 | 0.00 | 0.00 | 70 | 1014.3 |
| 20260506200010 | 77 | 9 | 1.7 | 9.6 | 0.00 | 0.00 | 0.00 | 70 | 1013.5 |
| 20260506194530 | 78 | 0 | 1.7 | 7.8 | 0.00 | 0.00 | 0.00 | 69 | 1014.2 |
| 20260506194504 | 78 | 9 | 1.7 | 7.8 | 0.00 | 0.00 | 0.00 | 70 | 1013.4 |
| 20260506193031 | 78 | 9 | 0.9 | 9.6 | 0.00 | 0.00 | 0.00 | 70 | 1014.5 |
| 20260506193002 | 78 | 9 | 0.0 | 9.6 | 0.00 | 0.00 | 0.00 | 70 | 1013.7 |
| 20260506191529 | 78 | 9 | 0.0 | 4.3 | 0.00 | 0.00 | 0.00 | 69 | 1014.6 |
| 20260506191501 | 78 | 9 | 0.0 | 4.3 | 0.00 | 0.00 | 0.00 | 70 | 1013.9 |
| 20260506190036 | 78 | 9 | 0.9 | 11.3 | 0.00 | 0.00 | 0.00 | 69 | 1014.8 |
| 20260506190002 | 78 | 9 | 0.9 | 8.7 | 0.00 | 0.00 | 0.00 | 70 | 1014.1 |
| 20260506184619 | 78 | 9 | 0.9 | 4.3 | 0.00 | 0.00 | 0.00 | 69 | 1014.3 |
| 20260506184529 | 78 | 9 | 0.0 | 6.1 | 0.00 | 0.00 | 0.00 | 68 | 1015.1 |
| 20260506183100 | 78 | 9 | 2.6 | 9.6 | 0.00 | 0.00 | 0.00 | 68 | 1014.4 |
| 20260506183029 | 78 | 9 | 2.6 | 9.6 | 0.00 | 0.00 | 0.00 | 67 | 1015.2 |
| 20260506181559 | 79 | 9 | 1.7 | 8.7 | 0.00 | 0.00 | 0.00 | 65 | 1014.4 |
| 20260506181530 | 79 | 9 | 0.9 | 8.7 | 0.00 | 0.00 | 0.00 | 65 | 1015.2 |
| 20260506180059 | 80 | 9 | 0.9 | 5.2 | 0.00 | 0.00 | 0.00 | 65 | 1014.6 |
| 20260506180031 | 80 | 9 | 0.9 | 4.3 | 0.00 | 0.00 | 0.00 | 64 | 1015.4 |
| 20260506174557 | 79 | 9 | 1.7 | 8.7 | 0.00 | 0.00 | 0.00 | 65 | 1014.9 |
| 20260506174530 | 79 | 9 | 1.7 | 8.7 | 0.00 | 0.00 | 0.00 | 64 | 1015.7 |
| 20260506173108 | 78 | 9 | 0.9 | 7.0 | 0.00 | 0.00 | 0.00 | 65 | 1015.2 |
| 20260506173042 | 78 | 9 | 0.9 | 7.0 | 0.00 | 0.00 | 0.00 | 66 | 1016.0 |
| 20260506171603 | 78 | 9 | 0.0 | 7.0 | 0.00 | 0.00 | 0.00 | 68 | 1015.5 |
| 20260506171529 | 78 | 9 | 0.9 | 7.0 | 0.00 | 0.00 | 0.00 | 67 | 1016.3 |
| 20260506170029 | 77 | 0 | 0.9 | 4.3 | 0.00 | 0.00 | 0.00 | 68 | 1016.3 |
| 20260506164612 | 77 | 9 | 0.0 | 2.6 | 0.00 | 0.00 | 0.00 | 68 | 1015.6 |
| 20260506164528 | 77 | 0 | 0.0 | 2.6 | 0.00 | 0.00 | 0.00 | 67 | 1016.4 |
| 20260506163102 | 77 | 9 | 0.0 | 4.3 | 0.00 | 0.00 | 0.00 | 67 | 1015.7 |
| 20260506163045 | 77 | 9 | 0.9 | 4.3 | 0.00 | 0.00 | 0.00 | 66 | 1016.5 |
| 20260506161554 | 78 | 9 | 1.7 | 7.0 | 0.00 | 0.00 | 0.00 | 65 | 1015.8 |
| 20260506161530 | 78 | 9 | 0.9 | 7.0 | 0.00 | 0.00 | 0.00 | 65 | 1016.6 |
| 20260506160106 | 78 | 9 | 0.0 | 5.2 | 0.00 | 0.00 | 0.00 | 65 | 1015.7 |
| 20260506160031 | 78 | 0 | 0.0 | 6.1 | 0.00 | 0.00 | 0.00 | 65 | 1016.5 |
| 20260506154554 | 77 | 9 | 0.0 | 3.5 | 0.00 | 0.00 | 0.00 | 65 | 1015.9 |
| 20260506154537 | 77 | 0 | 0.0 | 3.5 | 0.00 | 0.00 | 0.00 | 64 | 1016.7 |
| 20260506153051 | 78 | 9 | 1.7 | 5.2 | 0.00 | 0.00 | 0.00 | 62 | 1016.0 |
| 20260506153032 | 78 | 9 | 1.7 | 6.1 | 0.00 | 0.00 | 0.00 | 61 | 1016.8 |
| 20260506151550 | 79 | 5 | 0.0 | 4.3 | 0.00 | 0.00 | 0.00 | 64 | 1016.1 |
| 20260506151537 | 79 | 0 | 0.0 | 4.3 | 0.00 | 0.00 | 0.00 | 64 | 1016.9 |
| 20260506150048 | 78 | 9 | 0.0 | 1.7 | 0.00 | 0.00 | 0.00 | 64 | 1016.1 |
| 20260506150032 | 78 | 0 | 0.0 | 1.7 | 0.00 | 0.00 | 0.00 | 64 | 1017.1 |
| 20260506144547 | 77 | 9 | 0.0 | 3.5 | 0.00 | 0.00 | 0.00 | 63 | 1015.8 |
| 20260506144530 | 77 | 0 | 0.0 | 3.5 | 0.00 | 0.00 | 0.00 | 63 | 1016.7 |
| 20260506143045 | 77 | 9 | 0.9 | 5.2 | 0.00 | 0.00 | 0.00 | 65 | 1015.5 |
| 20260506143028 | 77 | 9 | 0.0 | 6.1 | 0.00 | 0.00 | 0.00 | 65 | 1016.4 |
| 20260506141602 | 76 | 9 | 0.0 | 3.5 | 0.00 | 0.00 | 0.00 | 67 | 1015.6 |
| 20260506141530 | 76 | 0 | 0.0 | 3.5 | 0.00 | 0.00 | 0.00 | 67 | 1016.4 |
| 20260506140040 | 75 | 9 | 0.0 | 4.3 | 0.00 | 0.00 | 0.00 | 69 | 1015.6 |
| 20260506140034 | 75 | 0 | 0.0 | 7.0 | 0.00 | 0.00 | 0.00 | 69 | 1016.3 |
| 20260506134534 | 73 | 9 | 0.0 | 3.5 | 0.00 | 0.00 | 0.00 | 72 | 1015.3 |
| 20260506133033 | 73 | 0 | 0.0 | 4.3 | 0.00 | 0.00 | 0.00 | 76 | 1016.0 |
| 20260506131536 | 73 | 9 | 0.0 | 0.0 | 0.00 | 0.00 | 0.00 | 80 | 1015.1 |
| 20260506130030 | 72 | 9 | 0.0 | 4.3 | 0.00 | 0.00 | 0.00 | 82 | 1016.0 |
| 20260506124529 | 71 | 9 | 0.0 | 2.6 | 0.00 | 0.00 | 0.00 | 83 | 1015.2 |
| 20260506123037 | 71 | 9 | 0.0 | 4.3 | 0.00 | 0.00 | 0.00 | 84 | 1014.9 |
| 20260506123030 | 71 | 9 | 0.0 | 4.3 | 0.00 | 0.00 | 0.00 | 84 | 1015.8 |
| 20260506121529 | 70 | 0 | 0.0 | 4.3 | 0.00 | 0.00 | 0.00 | 84 | 1015.7 |
| 20260506121527 | 70 | 9 | 0.0 | 4.3 | 0.00 | 0.00 | 0.00 | 84 | 1014.8 |
| 20260506120035 | 70 | 9 | 0.0 | 1.7 | 0.00 | 0.00 | 0.00 | 84 | 1014.7 |
| 20260506120029 | 70 | 0 | 0.0 | 1.7 | 0.00 | 0.00 | 0.00 | 84 | 1015.5 |
| 20260506114527 | 69 | 0 | 0.0 | 2.6 | 0.00 | 0.00 | 0.00 | 84 | 1015.5 |
| 20260506113032 | 69 | 0 | 0.0 | 0.0 | 0.00 | 0.00 | 0.00 | 83 | 1015.3 |
| 20260506113020 | 69 | 9 | 0.0 | 0.0 | 0.00 | 0.00 | 0.00 | 83 | 1014.4 |
| 20260506111531 | 68 | 0 | 0.0 | 0.0 | 0.00 | 0.00 | 0.00 | 83 | 1015.3 |
| 20260506111520 | 68 | 9 | 0.0 | 0.0 | 0.00 | 0.00 | 0.00 | 83 | 1014.4 |
| 20260506110029 | 68 | 0 | 0.0 | 0.0 | 0.00 | 0.00 | 0.00 | 82 | 1015.2 |
| 20260506110024 | 68 | 9 | 0.0 | 0.0 | 0.00 | 0.00 | 0.00 | 82 | 1014.4 |
| 20260506104528 | 68 | 0 | 0.0 | 0.9 | 0.00 | 0.00 | 0.00 | 81 | 1015.2 |
| 20260506104517 | 68 | 9 | 0.0 | 0.9 | 0.00 | 0.00 | 0.00 | 82 | 1014.4 |
| 20260506103028 | 68 | 0 | 0.0 | 0.0 | 0.00 | 0.00 | 0.00 | 81 | 1015.1 |
| 20260506103025 | 68 | 9 | 0.0 | 0.0 | 0.00 | 0.00 | 0.00 | 82 | 1014.3 |
| 20260506101532 | 69 | 0 | 0.0 | 0.9 | 0.00 | 0.00 | 0.00 | 81 | 1014.9 |
| 20260506101516 | 69 | 9 | 0.0 | 0.9 | 0.00 | 0.00 | 0.00 | 81 | 1014.1 |
| 20260506100034 | 69 | 0 | 0.0 | 0.0 | 0.00 | 0.00 | 0.00 | 81 | 1015.0 |
| 20260506100015 | 69 | 9 | 0.0 | 0.0 | 0.00 | 0.00 | 0.00 | 81 | 1014.3 |
| 20260506094530 | 69 | 0 | 0.0 | 0.9 | 0.00 | 0.00 | 0.00 | 81 | 1014.8 |
| 20260506094527 | 69 | 9 | 0.0 | 0.9 | 0.00 | 0.00 | 0.00 | 81 | 1014.1 |
| 20260506093030 | 69 | 0 | 0.0 | 0.9 | 0.00 | 0.00 | 0.00 | 79 | 1014.9 |
| 20260506093023 | 69 | 9 | 0.0 | 0.9 | 0.00 | 0.00 | 0.00 | 80 | 1014.1 |
| 20260506091530 | 69 | 0 | 0.0 | 0.9 | 0.00 | 0.00 | 0.00 | 78 | 1015.0 |
| 20260506091512 | 69 | 9 | 0.0 | 0.9 | 0.00 | 0.00 | 0.00 | 79 | 1014.2 |
| 20260506090027 | 69 | 0 | 0.0 | 0.9 | 0.00 | 0.00 | 0.00 | 77 | 1015.0 |
| 20260506090013 | 69 | 9 | 0.0 | 0.9 | 0.00 | 0.00 | 0.00 | 78 | 1014.1 |
| 20260506084536 | 69 | 0 | 0.0 | 1.7 | 0.00 | 0.00 | 0.00 | 77 | 1014.6 |
| 20260506084510 | 69 | 9 | 0.0 | 0.9 | 0.00 | 0.00 | 0.00 | 77 | 1013.9 |
| 20260506083032 | 69 | 0 | 0.0 | 2.6 | 0.00 | 0.00 | 0.00 | 76 | 1014.8 |
| 20260506083011 | 69 | 9 | 0.0 | 2.6 | 0.00 | 0.00 | 0.00 | 77 | 1014.1 |
| 20260506081528 | 69 | 0 | 0.0 | 0.9 | 0.00 | 0.00 | 0.00 | 75 | 1014.9 |
| 20260506081510 | 69 | 9 | 0.0 | 0.9 | 0.00 | 0.00 | 0.00 | 76 | 1014.1 |
| 20260506073029 | 69 | 0 | 0.0 | 2.6 | 0.00 | 0.00 | 0.00 | 74 | 1014.8 |
| 20260506073007 | 69 | 9 | 0.0 | 2.6 | 0.00 | 0.00 | 0.00 | 74 | 1014.1 |
| 20260506071530 | 69 | 9 | 0.0 | 1.7 | 0.00 | 0.00 | 0.00 | 74 | 1014.9 |
| 20260506071507 | 69 | 9 | 0.0 | 1.7 | 0.00 | 0.00 | 0.00 | 74 | 1014.1 |
| 20260506061531 | 69 | 0 | 0.0 | 3.5 | 0.00 | 0.00 | 0.00 | 72 | 1015.3 |
| 20260506061501 | 69 | 9 | 0.0 | 3.5 | 0.00 | 0.00 | 0.00 | 72 | 1014.6 |
| 20260506044553 | 69 | 5 | 0.9 | 3.5 | 0.00 | 0.00 | 0.00 | 66 | 1014.8 |
| 20260506044532 | 69 | 9 | 0.0 | 3.5 | 0.00 | 0.00 | 0.00 | 65 | 1015.6 |
| 20260506043044 | 69 | 5 | 0.0 | 2.6 | 0.00 | 0.00 | 0.00 | 65 | 1014.8 |
| 20260506043028 | 69 | 0 | 0.0 | 2.6 | 0.00 | 0.00 | 0.00 | 65 | 1015.6 |
| 20260506041549 | 69 | 9 | 0.0 | 1.7 | 0.00 | 0.00 | 0.00 | 64 | 1015.8 |
| 20260506040043 | 69 | 5 | 0.0 | 4.3 | 0.00 | 0.00 | 0.00 | 64 | 1015.2 |
| 20260506040033 | 69 | 0 | 0.0 | 4.3 | 0.00 | 0.00 | 0.00 | 64 | 1016.0 |
| 20260506034543 | 69 | 0 | 0.0 | 4.3 | 0.00 | 0.00 | 0.00 | 63 | 1016.0 |
| 20260506034536 | 69 | 9 | 0.0 | 3.5 | 0.00 | 0.00 | 0.00 | 64 | 1015.2 |
| 20260506033034 | 69 | 9 | 0.9 | 4.3 | 0.00 | 0.00 | 0.00 | 63 | 1015.2 |
| 20260506033029 | 69 | 0 | 0.0 | 4.3 | 0.00 | 0.00 | 0.00 | 63 | 1016.0 |
| 20260506031544 | 69 | 5 | 0.0 | 2.6 | 0.00 | 0.00 | 0.00 | 63 | 1015.2 |
| 20260506031529 | 69 | 0 | 0.0 | 3.5 | 0.00 | 0.00 | 0.00 | 63 | 1015.9 |
| 20260506030038 | 69 | 9 | 0.0 | 4.3 | 0.00 | 0.00 | 0.00 | 62 | 1015.2 |
| 20260506030028 | 69 | 0 | 0.0 | 4.3 | 0.00 | 0.00 | 0.00 | 61 | 1016.0 |
| 20260506024536 | 69 | 5 | 0.0 | 3.5 | 0.00 | 0.00 | 0.00 | 62 | 1015.0 |
| 20260506024529 | 69 | 5 | 0.0 | 2.6 | 0.00 | 0.00 | 0.00 | 61 | 1015.8 |
| 20260506023036 | 69 | 9 | 0.0 | 4.3 | 0.00 | 0.00 | 0.00 | 62 | 1015.0 |
| 20260506023030 | 69 | 5 | 0.0 | 4.3 | 0.00 | 0.00 | 0.00 | 62 | 1015.7 |
| 20260506021532 | 69 | 5 | 0.0 | 4.3 | 0.00 | 0.00 | 0.00 | 63 | 1014.9 |
| 20260506021529 | 69 | 0 | 0.0 | 4.3 | 0.00 | 0.00 | 0.00 | 63 | 1015.7 |
| 20260506020031 | 69 | 9 | 0.0 | 2.6 | 0.00 | 0.00 | 0.00 | 63 | 1014.9 |
| 20260506020028 | 69 | 0 | 0.0 | 2.6 | 0.00 | 0.00 | 0.00 | 62 | 1015.7 |
| 20260506014532 | 69 | 9 | 0.0 | 1.7 | 0.00 | 0.00 | 0.00 | 63 | 1014.9 |
| 20260506014528 | 69 | 0 | 0.0 | 1.7 | 0.00 | 0.00 | 0.00 | 62 | 1015.7 |
| 20260506013041 | 69 | 0 | 0.0 | 2.6 | 0.00 | 0.00 | 0.00 | 61 | 1015.8 |
| 20260506013031 | 69 | 5 | 0.0 | 2.6 | 0.00 | 0.00 | 0.00 | 62 | 1014.9 |
| 20260506011531 | 69 | 9 | 0.0 | 3.5 | 0.00 | 0.00 | 0.00 | 60 | 1015.9 |
| 20260506010032 | 69 | 5 | 0.0 | 1.7 | 0.00 | 0.00 | 0.00 | 60 | 1014.8 |
| 20260506004541 | 69 | 9 | 0.0 | 3.5 | 0.00 | 0.00 | 0.00 | 60 | 1014.6 |
| 20260506004527 | 69 | 0 | 0.0 | 3.5 | 0.00 | 0.00 | 0.00 | 59 | 1015.4 |
| 20260506003030 | 69 | 0 | 0.0 | 2.6 | 0.00 | 0.00 | 0.00 | 60 | 1015.2 |
| 20260506001530 | 70 | 0 | 0.0 | 2.6 | 0.00 | 0.00 | 0.00 | 60 | 1015.2 |
| 20260506001528 | 70 | 5 | 0.0 | 2.6 | 0.00 | 0.00 | 0.00 | 61 | 1014.4 |
| 20260506000029 | 70 | 5 | 0.0 | 2.6 | 0.00 | 0.00 | 0.00 | 58 | 1015.4 |
| 20260505234600 | 71 | 5 | 0.0 | 4.3 | 0.00 | 0.00 | 0.00 | 57 | 1014.5 |
| 20260505234529 | 71 | 0 | 0.0 | 4.3 | 0.00 | 0.00 | 0.00 | 57 | 1015.3 |
| 20260505233030 | 71 | 5 | 0.0 | 2.6 | 0.00 | 0.00 | 0.00 | 56 | 1015.4 |
| 20260505233028 | 71 | 9 | 0.0 | 2.6 | 0.00 | 0.00 | 0.00 | 57 | 1014.6 |
| 20260505231531 | 72 | 5 | 0.9 | 4.3 | 0.00 | 0.00 | 0.00 | 56 | 1015.6 |
| 20260505231526 | 72 | 9 | 1.7 | 4.3 | 0.00 | 0.00 | 0.00 | 56 | 1014.6 |
| 20260505230041 | 72 | 0 | 0.0 | 6.1 | 0.00 | 0.00 | 0.00 | 54 | 1015.4 |
| 20260505230026 | 72 | 5 | 0.0 | 4.3 | 0.00 | 0.00 | 0.00 | 55 | 1014.5 |
| 20260505224530 | 73 | 5 | 0.9 | 5.2 | 0.00 | 0.00 | 0.00 | 54 | 1015.4 |
| 20260505223037 | 73 | 5 | 0.0 | 2.6 | 0.00 | 0.00 | 0.00 | 55 | 1015.4 |
| 20260505223025 | 73 | 9 | 0.9 | 3.5 | 0.00 | 0.00 | 0.00 | 56 | 1014.5 |
| 20260505221528 | 73 | 0 | 0.0 | 7.0 | 0.00 | 0.00 | 0.00 | 54 | 1015.4 |
| 20260505221524 | 73 | 9 | 0.0 | 7.0 | 0.00 | 0.00 | 0.00 | 55 | 1014.6 |
| 20260505220047 | 74 | 9 | 0.9 | 4.3 | 0.00 | 0.00 | 0.00 | 52 | 1015.5 |
| 20260505220024 | 73 | 9 | 0.9 | 4.3 | 0.00 | 0.00 | 0.00 | 52 | 1014.6 |
| 20260505214535 | 73 | 0 | 0.0 | 4.3 | 0.00 | 0.00 | 0.00 | 50 | 1015.7 |
| 20260505214525 | 73 | 9 | 0.0 | 4.3 | 0.00 | 0.00 | 0.00 | 50 | 1014.8 |
| 20260505213033 | 74 | 9 | 0.0 | 4.3 | 0.00 | 0.00 | 0.00 | 48 | 1015.8 |
| 20260505213024 | 74 | 5 | 0.9 | 4.3 | 0.00 | 0.00 | 0.00 | 49 | 1014.8 |
| 20260505211531 | 74 | 0 | 0.0 | 7.0 | 0.00 | 0.00 | 0.00 | 47 | 1015.7 |
| 20260505211522 | 74 | 5 | 0.9 | 3.5 | 0.00 | 0.00 | 0.00 | 47 | 1014.7 |
| 20260505210030 | 74 | 9 | 0.0 | 4.3 | 0.00 | 0.00 | 0.00 | 46 | 1015.8 |
| 20260505210023 | 74 | 5 | 0.9 | 4.3 | 0.00 | 0.00 | 0.00 | 47 | 1014.9 |